Regional Weather Roundup
Issued by NWS

Home | Current Version | Previous Version | Text Only | Print | Product List | Glossary Off
Versions: 1 2 3 4 5 6 7 8 9 10 11 12 13 14 15 16 17 18 19 20 21 22 23 24 25 26 27 28 29 30 31 32 33 34 35 36 37 38 39 40 41 42 43 44 45 46 47 48 49 50

000
ASUS43 KBIS 281502
RWRND

NORTH DAKOTA REGIONAL WEATHER ROUNDUP
NATIONAL WEATHER SERVICE BISMARCK ND
1000 AM CDT FRI AUG 28 2015

NOTE: "FAIR" INDICATES FEW OR NO CLOUDS BELOW 12,000 FEET WITH NO
SIGNIFICANT WEATHER AND/OR OBSTRUCTIONS TO VISIBILITY.


NDZ001>003-009>011-017-281600-
NORTHWEST NORTH DAKOTA

CITY           SKY/WX    TMP DP  RH WIND       PRES   REMARKS
WILLISTON      MOSUNNY   65  60  84 S6        29.91R
MINOT          MOSUNNY   71  60  68 SW9       29.85R HAZE
MINOT AFB      MOSUNNY   73  64  74 W9        29.83S
$$

NDZ018>021-031>035-040>046-281600-
SOUTHWEST NORTH DAKOTA

CITY           SKY/WX    TMP DP  RH WIND       PRES   REMARKS
BISMARCK       SUNNY     70  63  78 SW7       29.91S
DICKINSON      SUNNY     71  54  54 W10       29.93S
GARRISON         N/A     68  61  78 SW7       29.88S
HETTINGER ARPT SUNNY     70  58  65 W5        29.98S
$$

NDZ004>008-012>016-024-026-027-054-281600-
NORTHEAST NORTH DAKOTA

CITY           SKY/WX    TMP DP  RH WIND       PRES   REMARKS
GRAND FORKS    PTSUNNY   69  64  84 S10       29.87R
GRND FRKS AFB  MOSUNNY   69  65  85 S8        29.87R
DEVILS LAKE    MOSUNNY   72  59  64 SW9       29.85R
$$

NDZ022-023-025-028>030-036>039-047>053-281600-
SOUTHEAST NORTH DAKOTA

CITY           SKY/WX    TMP DP  RH WIND       PRES   REMARKS
FARGO          SUNNY     71  64  78 S12       29.92R
JAMESTOWN      SUNNY     69  64  84 S6        29.91R
$$



USA.gov is the U.S. government's official web portal to all federal, state and local government web resources and services.